Regional Weather Roundup
Issued by NWS

Home | Current Version | Previous Version | Text Only | Print | Product List | Glossary On
Versions: 1 2 3 4 5 6 7 8 9 10 11 12 13 14 15 16 17 18 19 20 21 22 23 24 25 26 27 28 29 30 31 32 33 34 35 36 37 38 39 40 41 42 43 44 45 46 47 48 49 50
000
ASUS43 KLOT 281710
RWRIL

ILLINOIS REGIONAL WEATHER ROUNDUP
NATIONAL WEATHER SERVICE CHICAGO/ROMEOVILLE IL
1100 AM CST SAT FEB 28 2015

NOTE: "FAIR" INDICATES FEW OR NO CLOUDS BELOW 12,000 FEET WITH NO
SIGNIFICANT WEATHER AND/OR OBSTRUCTIONS TO VISIBILITY.

* THESE STATIONS ARE NOT UNDER NWS QUALITY CONTROL. THEY ALSO MAY NOT
  REPORT WEATHER SUCH AS PRECIPITATION OR FOG.

ILZ001-002-007-009-015-016-024-281800-
NORTHWEST ILLINOIS

CITY           SKY/WX    TMP DP  RH WIND       PRES   REMARKS
MOLINE         SUNNY     12   1  61 SE12      30.65F WCI  -2
STERLING*      SUNNY     10   3  72 SE6       30.68S WCI   1
SAVANNA*       SUNNY      9  -2  59 CALM      30.68F
$$

ILZ003-004-008-010-011-017-018-281800-
NORTH CENTRAL ILLINOIS

CITY           SKY/WX    TMP DP  RH WIND       PRES   REMARKS
ROCKFORD       SUNNY     10  -2  58 S7        30.70S WCI  -1
FREEPORT*      SUNNY      5  -1  75 SE5       30.68F WCI  -4
ROCHELLE*      SUNNY     10   1  66 S9        30.69S WCI  -3
DE KALB*       SUNNY      7  -1  69 SE8       30.68S WCI  -6
PERU*          SUNNY     18   2  50 SE8       30.68F WCI   7
$$

ILZ005-006-012>014-019>023-281800-
NORTHEAST ILLINOIS

CITY           SKY/WX    TMP DP  RH WIND       PRES   REMARKS
CHICAGO-OHARE  SUNNY     14   0  53 SE5       30.69F WCI   6
CHICAGO-MIDWAY MOSUNNY   17   0  47 S10       30.71F WCI   5
AURORA         SUNNY     13   0  56 SE10      30.70F WCI   0
LANSING*       CLOUDY    15   0  52 S7        30.72F WCI   5
JOLIET*        MOSUNNY   12  -1  54 SE8       30.72S WCI   0
WAUKEGAN       SUNNY     14  -2  49 SW6       30.69F WCI   5
DUPAGE AIRPORT SUNNY     13   1  59 S7        30.68F WCI   3
KANKAKEE*      CLOUDY    16   4  57 SE9       30.71F WCI   5
WHEELING       SUNNY     14   0  53 S8        30.72F WCI   3
MORRIS*        CLOUDY     7   5  90 CALM      30.71S
ROMEOVILLE*    SUNNY     14  -1  52 SE9       30.70F WCI   2
NORTHERLY ISL    N/A     16   3  56 E6          N/A  WCI   8
$$

LMZ740>746-281800-
SOUTHERN LAKE MICHIGAN

STATION/POSITION SKY/WX   TEMP    WIND        PRES    VSBY  WAVE
                          AIR SEA DIR/SP/G                  HT/PER
                          (F)     (DEG/KT/KT) (MB)    (MI)  (FT/S)
WAUKEGAN HARBOR            14     190/  2/  6   N/A
HARRISON CRIB              13     170/  9/ 13   N/A
BURNHAM HARBOR             17     120/  6       N/A
CALUMET HARBOR             15     110/  5/  8 1038.7S
MICHIGAN CITY              14     140/  5/  6   N/A
$$

ILZ025>027-034>036-040-047-049-050-058-095>099-281800-
WEST-CENTRAL ILLINOIS

CITY           SKY/WX    TMP DP  RH WIND       PRES   REMARKS
QUINCY         MOSUNNY   18   4  54 SE8       30.59F WCI   8
GALESBURG*     SUNNY     17   4  59 SE8       30.63F WCI   6
MACOMB*        SUNNY     16   6  67 SE8       30.65F WCI   5
JACKSONVILLE*  SUNNY     20   9  64 E10       30.62F WCI   8
PITTSFIELD*    SUNNY     21   6  51 E12       30.61F WCI   9
$$

ILZ028>032-037-038-041>044-048-051>054-059>061-281800-
CENTRAL ILLINOIS

CITY           SKY/WX    TMP DP  RH WIND       PRES   REMARKS
PONTIAC        PTSUNNY   13   5  70 E12       30.69F WCI   0
BLOOMINGTON    SUNNY     20  10  65 SE10      30.64F WCI   9
DECATUR        SUNNY     18   8  65 E9        30.65F WCI   7
PEORIA         SUNNY     20   4  50 SE8       30.65F WCI  10
LACON*         SUNNY     16   1  53 SE8       30.66F WCI   5
LINCOLN*       SUNNY     23  10  58 SE8       30.68S WCI  14
SPRINGFIELD    SUNNY     21   8  57 E7        30.63F WCI  12
TAYLORVILLE    MOSUNNY   21   7  53 SE8       30.63F WCI  12
$$

ILZ033-039-045-046-055>057-062-063-281800-
EAST-CENTRAL ILLINOIS

CITY           SKY/WX    TMP DP  RH WIND       PRES   REMARKS
CHAMPAIGN      MOSUNNY   18   8  65 SE13      30.65F WCI   5
DANVILLE*      PTSUNNY   19   8  62 SE6       30.65F WCI  11
RANTOUL*       MOSUNNY   22   9  57 SE9       30.66F WCI  12
MATTOON        CLOUDY    22   6  50 SE12      30.64F WCI  10
PARIS*         MOSUNNY   22   8  54 SE7       30.68F WCI  13
$$

ILZ079-100>102-281800-
SOUTHWEST ILLINOIS

CITY           SKY/WX    TMP DP  RH WIND       PRES   REMARKS
ALTON          PTSUNNY   21   7  53 E12       30.62F WCI   9
BELLEVILLE     CLOUDY    26  11  52 SE10      30.61F WCI  16
CAHOKIA*       CLOUDY    27  10  49 SE9       30.62F WCI  18
SPARTA*        PTSUNNY   25  11  54 SE9       30.62F WCI  16
$$

ILZ064>066-069>071-074>076-080>082-084>086-088>090-092>094-281800-
SOUTH-CENTRAL ILLINOIS

CITY           SKY/WX    TMP DP  RH WIND       PRES   REMARKS
CARBONDALE     CLOUDY    28  11  48 E9        30.63F WCI  19
CAIRO*         CLOUDY    29  15  55 NE9       30.62S WCI  21
EFFINGHAM*     MOSUNNY   24   5  44 E8        30.66F WCI  15
MARION         CLOUDY    28  12  50 SE8       30.64F WCI  20
MT. VERNON     CLOUDY    27  10  50 E6        30.65F WCI  20
CENTRALIA*     PTSUNNY   26   9  50 SE7       30.63F WCI  18
SALEM*         CLOUDY    26   8  44 SE7       30.64F WCI  19
METROPOLIS*    CLOUDY    30  14  52 E3        30.61F
$$

ILZ067-068-072-073-078-083-087-091-281800-
SOUTHEAST ILLINOIS

CITY           SKY/WX    TMP DP  RH WIND       PRES   REMARKS
LAWRENCEVILLE  CLOUDY    24  10  55 E10       30.67F WCI  14
FLORA*         CLOUDY    24  11  55 SE8       30.66F WCI  16
FAIRFIELD*     CLOUDY    26  11  53 E8        30.65S WCI  18
HARRISBURG*    CLOUDY    27  14  56 E6        30.65F WCI  21
ROBINSON*      SUNNY     26   9  49 E9        30.69S WCI  17
CARMI*         CLOUDY    31  15  52 CALM      30.64F
$$

ABBREVIATIONS USED IN REMARKS
   TC - TEMPERATURE IN CELSIUS
  WCI - WIND CHILL INDEX
   HX - HEAT INDEX
  VSB - VISIBILITY
$$




USA.gov is the U.S. government's official web portal to all federal, state and local government web resources and services.